Weather History for Linden, NJ

Change the Weather History Date:

Friday, February 21, 2014

  Actual Average (KEWR) Record (KEWR)
Temperature  
Mean Temperature 41 °F 36 °F  
Max Temperature 45 °F 44 °F 69 °F (1953)
Min Temperature 37 °F 28 °F 6 °F (1950)
Degree Days  
Heating Degree Days 24 29  
Month to date heating degree days 653  
Since 1 July heating degree days 3437  
Cooling Degree Days 0 0  
Month to date cooling degree days 0  
Year to date cooling degree days 0  
Moisture  
Dew Point 39 °F    
Average Humidity 95    
Maximum Humidity 98    
Minimum Humidity 83    
Precipitation  
Precipitation 0.12 in 0.11 in 1.50 in (1951)
Month to date precipitation 2.12  
Year to date precipitation 5.66  
Snow  
Snow 0.00 in 0.30 in 4.10 in (1993)
Month to date snowfall 7.2  
Since 1 July snowfall 20.9  
Snow Depth -    
Sea Level Pressure  
Sea Level Pressure 29.88 in    
Wind  
Wind Speed 4 mph (NE)    
Max Wind Speed 13 mph    
Max Gust Speed 20 mph    
Visibility 3 miles    
Events Fog , Rain , Thunderstorm    
T = Trace of Precipitation, MM = Missing Value Source: NWS Daily Summary

Daily Weather History Graph

Daily Weather History Graph

Search for Another Location

Airport:

Trip Planner

Search our weather history database for the weather conditions in past years. The results will help you decide how hot, cold, wet, or windy it might be!

Date:

Astronomy

Feb. 21, 2014 Rise Set
Actual Time 6:42 AM EST 5:39 PM EST
Civil Twilight 6:14 AM EST 6:06 PM EST
Nautical Twilight 5:43 AM EST 6:38 PM EST
Astronomical Twilight 5:11 AM EST 7:10 PM EST
Moon No Moon Rise 10:03 AM EST (2/21)
Length of Visible Light 11h 51m
Length of Day
10h 56m
Waning Gibbous, 61% of the Moon is Illuminated
Feb 21
Waning Gibbous
Feb 22
Last Quarter
Mar 1
New
Mar 8
First Quarter
Mar 16
Full

Hourly Weather History & Observations

Time (EST) Temp. Windchill Dew Point Humidity Pressure Visibility Wind Dir Wind Speed Gust Speed Precip Events Conditions
12:15 AM 39.6 °F 36.3 °F 38.3 °F 95% 30.04 in 3.0 mi ENE 4.6 mph - N/A   Overcast
12:35 AM 39.2 °F 37.0 °F 37.8 °F 95% 30.03 in 3.0 mi ENE 3.5 mph - N/A   Overcast
12:55 AM 39.6 °F 36.3 °F 38.3 °F 95% 30.03 in 3.0 mi NE 4.6 mph - N/A   Overcast
1:15 AM 39.2 °F 35.9 °F 37.8 °F 95% 30.02 in 3.0 mi NE 4.6 mph - N/A   Overcast
1:35 AM 38.8 °F 35.4 °F 37.6 °F 95% 30.01 in 2.5 mi ENE 4.6 mph - N/A   Overcast
1:55 AM 38.8 °F 35.4 °F 37.6 °F 95% 30.01 in 2.0 mi NE 4.6 mph - N/A   Overcast
2:15 AM 38.7 °F - 37.6 °F 96% 30.00 in 1.2 mi Calm Calm - N/A   Overcast
2:35 AM 39.0 °F 36.8 °F 37.8 °F 95% 29.99 in 0.8 mi SE 3.5 mph - N/A   Overcast
2:55 AM 38.8 °F 36.5 °F 37.8 °F 96% 29.99 in 0.5 mi East 3.5 mph - N/A Fog Fog
3:15 AM 39.2 °F 35.9 °F 38.1 °F 96% 29.99 in 0.5 mi East 4.6 mph - N/A Fog Fog
3:35 AM 38.7 °F 34.3 °F 37.6 °F 96% 29.97 in 0.5 mi East 5.8 mph - N/A Fog Fog
3:55 AM 39.4 °F 34.5 °F 38.5 °F 97% 29.97 in 0.5 mi East 6.9 mph - N/A Fog Fog
4:15 AM 39.2 °F 35.9 °F 38.3 °F 97% 29.97 in 0.5 mi East 4.6 mph - N/A Fog Fog
4:35 AM 39.4 °F 35.2 °F 38.5 °F 97% 29.96 in 0.5 mi East 5.8 mph - N/A Fog Fog
4:55 AM 39.4 °F 36.1 °F 38.5 °F 97% 29.96 in 0.5 mi East 4.6 mph - N/A Fog Fog
5:15 AM 38.5 °F 35.0 °F 37.6 °F 97% 29.97 in 0.5 mi NE 4.6 mph - N/A Fog Fog
5:35 AM 38.3 °F - 37.4 °F 97% 29.97 in 0.8 mi Calm Calm - N/A   Overcast
5:55 AM 38.1 °F 34.6 °F 37.4 °F 97% 29.96 in 1.2 mi NE 4.6 mph - N/A   Overcast
6:15 AM 37.8 °F 34.2 °F 37.0 °F 97% 29.96 in 1.2 mi ENE 4.6 mph - N/A   Overcast
6:35 AM 37.6 °F 35.1 °F 36.9 °F 97% 29.96 in 1.0 mi ENE 3.5 mph - N/A   Overcast
6:55 AM 37.9 °F 33.5 °F 37.2 °F 97% 29.96 in 1.2 mi East 5.8 mph - N/A   Overcast
7:15 AM 38.3 °F 35.9 °F 37.4 °F 97% 29.95 in 1.5 mi North 3.5 mph - N/A   Overcast
7:35 AM 38.1 °F 32.9 °F 37.4 °F 97% 29.94 in 1.0 mi East 6.9 mph - N/A   Overcast
7:55 AM 38.3 °F 33.9 °F 37.6 °F 97% 29.95 in 1.2 mi ENE 5.8 mph - N/A   Drizzle
8:15 AM 38.7 °F 34.3 °F 37.9 °F 97% 29.94 in 1.2 mi East 5.8 mph - N/A   Drizzle
8:35 AM 38.3 °F 33.9 °F 37.6 °F 97% 29.94 in 1.2 mi ENE 5.8 mph - N/A   Light Drizzle
8:55 AM 38.3 °F 35.9 °F 37.6 °F 97% 29.94 in 1.5 mi ENE 3.5 mph - N/A   Light Drizzle
9:15 AM 38.8 °F 31.6 °F 38.3 °F 98% 29.92 in 1.2 mi East 11.5 mph - N/A   Overcast
9:35 AM 39.2 °F 32.5 °F 38.5 °F 97% 29.91 in 1.0 mi East 10.4 mph - N/A   Overcast
9:55 AM 39.2 °F 32.5 °F 38.5 °F 97% 29.90 in 0.8 mi East 10.4 mph - N/A   Overcast
10:15 AM 39.2 °F 33.0 °F 38.5 °F 97% 29.89 in 0.8 mi East 9.2 mph - N/A   Overcast
10:35 AM 39.0 °F - 38.3 °F 97% 29.90 in 0.5 mi Calm Calm - N/A Fog Fog
10:55 AM 38.8 °F 35.4 °F 38.3 °F 98% 29.89 in 0.5 mi ENE 4.6 mph - N/A Fog Fog
11:15 AM 39.4 °F - 38.7 °F 97% 29.87 in 0.5 mi Calm Calm - N/A Fog Fog
11:35 AM 38.8 °F 35.4 °F 38.3 °F 98% 29.85 in 0.5 mi ENE 4.6 mph - N/A Fog Fog
11:55 AM 40.3 °F 35.5 °F 39.6 °F 97% 29.83 in 0.2 mi East 6.9 mph - N/A Fog Fog
12:15 PM 39.9 °F 36.7 °F 39.2 °F 97% 29.81 in 0.2 mi NE 4.6 mph - N/A Fog Fog
12:35 PM 40.5 °F 37.3 °F 39.7 °F 97% 29.78 in 0.2 mi ENE 4.6 mph - N/A Fog Fog
12:55 PM 40.3 °F 35.5 °F 39.6 °F 97% 29.76 in 0.2 mi NE 6.9 mph - N/A Fog Fog
1:15 PM 40.3 °F 36.3 °F 39.6 °F 97% 29.74 in 0.2 mi NE 5.8 mph - N/A Fog Fog
1:35 PM 40.8 °F 37.8 °F 40.1 °F 97% 29.73 in 0.2 mi NE 4.6 mph - N/A Fog Fog
1:55 PM 41.0 °F 39.0 °F 40.5 °F 98% 29.71 in 0.2 mi ENE 3.5 mph - N/A Fog Fog
2:15 PM 41.7 °F 38.8 °F 41.0 °F 97% 29.70 in 0.8 mi NE 4.6 mph - N/A   Overcast
2:35 PM 41.4 °F 38.4 °F 40.8 °F 98% 29.69 in 0.8 mi ENE 4.6 mph - N/A   Overcast
2:55 PM 41.7 °F 38.0 °F 41.0 °F 97% 29.67 in 0.8 mi NE 5.8 mph - N/A   Overcast
3:15 PM 42.1 °F 39.2 °F 41.4 °F 97% 29.70 in 0.5 mi NNW 4.6 mph - 0.02 in Rain , Thunderstorm Rain
3:35 PM 41.9 °F 40.0 °F 41.2 °F 97% 29.71 in 0.5 mi West 3.5 mph - 0.08 in Rain Light Rain
3:55 PM 42.4 °F 35.7 °F 41.9 °F 98% 29.72 in 3.0 mi NW 12.7 mph 19.6 mph 0.10 in Rain Rain
4:15 PM 41.5 °F 35.4 °F 40.8 °F 97% 29.74 in 4.0 mi WNW 10.4 mph - 0.01 in   Light Drizzle
4:35 PM 42.8 °F 38.6 °F 42.1 °F 97% 29.75 in 5.0 mi WNW 6.9 mph - 0.01 in   Overcast
4:55 PM 43.9 °F - 43.2 °F 97% 29.77 in 5.0 mi Calm Calm - 0.01 in   Overcast
5:15 PM 44.4 °F - 43.5 °F 97% 29.79 in 5.0 mi Calm Calm - N/A Rain Rain
5:35 PM 44.6 °F - 43.7 °F 97% 29.79 in 7.0 mi Calm Calm - 0.01 in Rain Light Rain
5:55 PM 44.6 °F - 43.7 °F 97% 29.79 in 7.0 mi Calm Calm - 0.01 in   Overcast
6:15 PM 45.3 °F - 44.2 °F 96% 29.80 in 7.0 mi Calm Calm - N/A Rain Light Rain
6:35 PM 45.1 °F 42.0 °F 43.7 °F 95% 29.81 in 7.0 mi West 5.8 mph - N/A Rain Light Rain
6:55 PM 44.6 °F 40.7 °F 42.8 °F 93% 29.83 in 7.0 mi West 6.9 mph - N/A   Overcast
7:15 PM 44.4 °F 40.5 °F 41.7 °F 90% 29.84 in 10.0 mi West 6.9 mph - N/A   Scattered Clouds
7:35 PM 43.3 °F 39.9 °F 40.5 °F 90% 29.85 in 10.0 mi WNW 5.8 mph - N/A   Scattered Clouds
7:55 PM 42.8 °F 38.6 °F 39.9 °F 90% 29.86 in 10.0 mi West 6.9 mph - N/A   Mostly Cloudy
8:15 PM 43.2 °F 39.7 °F 39.9 °F 88% 29.87 in 10.0 mi West 5.8 mph - N/A   Mostly Cloudy
8:35 PM 42.3 °F 38.6 °F 38.7 °F 87% 29.88 in 10.0 mi West 5.8 mph - N/A   Clear
8:55 PM 43.0 °F 40.3 °F 38.3 °F 84% 29.88 in 10.0 mi West 4.6 mph - N/A   Clear
9:15 PM 42.4 °F 38.8 °F 37.8 °F 83% 29.88 in 10.0 mi West 5.8 mph - N/A   Clear
9:35 PM 41.9 °F 40.0 °F 37.4 °F 84% 29.89 in 10.0 mi West 3.5 mph - N/A   Clear
9:55 PM 41.5 °F - 36.9 °F 83% 29.91 in 10.0 mi Calm Calm - N/A   Clear
10:15 PM 39.9 °F - 36.3 °F 87% 29.91 in 10.0 mi Calm Calm - N/A   Clear
10:35 PM 40.3 °F - 36.9 °F 88% 29.92 in 10.0 mi Calm Calm - N/A   Clear
10:55 PM 40.1 °F - 37.0 °F 89% 29.92 in 10.0 mi Calm Calm - N/A   Clear
11:15 PM 38.1 °F - 35.6 °F 91% 29.93 in 10.0 mi Calm Calm - N/A   Clear
11:35 PM 37.4 °F - 35.4 °F 93% 29.94 in 7.0 mi Calm Calm - N/A   Clear
11:55 PM 37.0 °F - 35.2 °F 93% 29.95 in 7.0 mi Calm Calm - N/A   Clear